Voltar ao catálogo

STARLINK-32126

AtivoComunicaçõesVLEO
NORAD 60295·PAYLOAD·🇺🇸 United States

Lançado Jul 28, 2024 de Cape Canaveral Space Force Station

Loading…

Próximas Passagens (próximas 24 horas)

TLE

AtualizadoSource: CelesTrak SupGP

Época: Sep 15, 2026, 03:21 UTC

1 60295C 24132T   26258.14006944 -.00035625  00000+0 -11455-2 0  2583
2 60295  53.1566 251.2878 0001197  94.5141 225.2400 15.31723837    11

Acompanhe STARLINK-32126 em tempo real com AllMySat

Download on the App Store